Temp
72 71 73 73 75 75 74 74 74 74 75 75 75 75 75 74 73 72 71 70 69 69 67 67 68 67 68 69 69 69 68 67 66 65 64 65 63 63 66 65 65 65 64 65 65 63 62 59 61 66 68 69 70 72 74 75 76 72 71 72 74 73 72
73 73 74 75 74 74 74 74 74 75 75 75 75 73 73 74 73 73 72 70 69 69 68 68 68 69 68 67 67 66 67 67 66 66 65 65 65 64 64 64 64 63 63 64 65 63 58 58 60 62 63 67 68 68 70 72 73 72 73 73 74 74 72
71 72 73 73 72 73 72 73 72 72 73 73 73 71 71 72 72 72 72 71 70 70 69 68 69 69 68 68 68 67 67 67 67 66 66 66 66 66 65 64 63 63 62 61 62 61 62 63 59 61 64 64 62 65 69 69 71 73 74 72 72 75 73
69 70 70 70 71 71 71 71 70 69 70 71 73 73 69 70 70 71 70 70 71 70 69 69 68 68 69 68 68 68 67 66 66 66 65 66 66 65 65 64 63 64 62 61 62 61 62 60 59 59 61 66 66 64 67 71 72 74 74 73 73 74 74
68 69 68 68 69 69 70 70 70 70 71 71 71 72 71 71 70 69 68 68 69 69 68 69 69 69 69 69 67 66 66 66 67 66 66 65 66 65 65 65 64 65 64 63 64 63 62 62 62 62 64 66 65 67 71 70 73 74 75 75 76 75 74
68 68 68 68 69 69 69 69 70 70 70 70 70 70 71 72 69 68 68 67 67 69 69 68 67 69 70 69 68 67 66 66 66 66 65 65 65 64 64 65 65 65 64 66 64 63 63 63 61 59 62 66 61 62 69 70 68 73 74 74 76 76 76
67 67 67 68 68 69 69 68 69 70 70 70 71 70 71 72 72 71 69 68 68 68 67 66 68 68 69 68 67 67 66 66 66 66 66 66 66 66 66 65 64 65 65 65 64 64 63 62 61 60 60 60 62 62 69 69 71 68 71 73 76 77 76
66 66 67 68 68 68 69 69 69 70 70 71 71 72 74 72 72 71 69 67 67 66 67 66 66 66 65 66 66 66 65 65 66 65 63 65 65 66 66 65 65 65 65 65 65 64 65 64 64 63 61 58 58 58 60 68 69 69 70 73 77 77 76
67 67 66 67 67 67 68 69 69 69 70 71 71 72 73 73 72 70 70 68 68 67 67 67 66 65 65 64 64 65 65 67 65 64 64 65 65 66 66 66 65 65 65 65 66 65 65 65 64 63 61 60 58 57 59 59 61 65 73 67 73 76 76
67 66 66 66 66 67 67 68 69 70 70 70 71 72 72 72 72 71 70 68 67 67 67 66 66 66 65 65 65 65 65 65 65 65 65 64 65 66 65 65 65 65 65 66 66 66 65 64 64 64 63 61 61 59 58 58 60 62 70 70 69 73 78
67 67 66 66 66 66 67 67 67 67 68 69 70 70 71 71 71 72 70 69 69 68 68 67 67 67 65 63 64 65 65 64 64 65 65 66 65 65 64 64 65 65 65 65 65 66 66 64 64 64 63 64 63 60 61 61 60 66 67 71 72 71 75
67 67 66 66 65 65 66 66 66 66 67 68 68 68 69 70 70 71 71 70 69 68 69 68 68 67 66 64 64 64 65 65 65 65 65 65 65 64 64 64 64 64 65 65 65 66 67 65 64 64 64 64 63 64 62 63 60 62 65 64 71 75 75
68 67 66 65 64 65 65 65 66 66 66 67 67 68 68 69 69 69 70 70 68 67 66 65 66 66 65 65 65 63 64 65 65 64 64 64 64 64 64 64 64 64 65 65 65 66 66 67 67 64 65 64 63 63 62 62 62 61 64 68 70 74 77
65 66 66 66 64 64 64 64 65 66 67 66 67 67 67 68 68 69 70 69 68 67 65 64 65 64 64 64 65 65 65 65 64 63 64 64 65 64 64 64 64 65 65 64 64 65 66 67 67 66 65 64 62 64 62 61 60 61 66 68 70 73 76
65 66 65 64 64 64 64 63 64 64 63 65 66 67 68 68 68 68 68 68 67 67 66 66 65 63 63 64 64 64 65 64 64 64 64 64 65 65 63 63 64 64 65 64 64 64 66 66 67 65 65 65 62 61 63 62 61 59 61 65 68 71 74
65 64 64 64 63 63 63 63 64 63 63 63 64 64 64 65 65 67 68 67 68 67 66 65 65 64 64 64 63 63 64 65 64 64 63 64 64 64 63 63 63 63 64 63 64 64 65 67 68 66 65 64 63 63 63 63 61 59 59 60 66 69 71
64 64 63 63 62 62 62 62 63 62 62 62 61 62 63 62 61 62 63 66 67 67 66 63 64 64 64 64 64 64 64 65 65 64 64 64 64 64 63 62 63 64 64 63 63 63 63 64 65 65 65 64 63 63 63 63 63 63 63 62 67 71 70
62 62 62 62 62 62 62 62 62 62 61 60 60 60 59 60 59 60 60 63 65 65 65 64 64 64 64 64 64 64 63 64 65 64 63 64 64 64 63 63 64 65 64 62 62 62 63 63 65 65 64 64 63 63 63 63 63 63 60 61 65 70 70
61 61 61 61 61 62 62 61 61 60 60 59 58 58 57 57 57 58 59 61 63 63 62 62 60 58 60 63 64 63 63 63 64 64 63 63 64 64 63 63 63 63 64 62 62 62 63 63 64 65 65 65 65 63 63 63 63 62 62 60 63 66 68
61 61 61 61 61 62 61 60 60 59 60 59 57 56 56 55 56 56 57 58 60 56 52 51 49 49 50 53 59 63 63 63 63 64 64 64 64 63 63 63 63 63 63 63 62 63 63 63 63 64 65 65 66 63 62 62 62 62 61 61 63 66 66
61 61 61 61 61 61 60 60 59 59 59 57 57 56 55 54 54 55 54 54 56 54 51 49 48 46 46 48 50 56 62 63 63 63 63 64 64 63 63 63 62 64 64 63 63 63 63 62 63 63 65 65 65 62 62 61 61 61 60 60 60 59 58
61 61 61 61 60 60 60 59 59 59 58 57 56 56 56 54 53 53 52 52 52 53 49 47 46 44 43 44 46 51 56 60 62 62 62 62 63 63 63 61 63 64 64 63 60 60 61 61 63 62 63 64 64 61 61 61 60 60 59 59 59 58 58
61 60 60 59 59 60 59 59 59 58 58 58 57 57 56 55 54 52 51 51 50 51 48 47 45 43 43 43 44 46 51 55 60 62 62 62 63 63 63 62 63 62 61 60 57 55 53 54 57 62 63 63 63 62 60 60 60 60 59 58 58 58 57
60 59 59 59 58 58 58 58 58 58 58 57 56 56 55 54 53 52 51 50 49 49 48 46 42 40 40 41 42 44 46 51 57 60 62 62 62 62 63 64 64 63 61 59 57 51 50 50 50 51 54 57 60 63 61 59 59 60 59 59 60 59 57
60 59 59 58 58 58 57 57 56 57 56 56 57 56 55 54 53 53 51 50 49 48 47 45 41 41 40 40 41 42 44 49 54 57 60 61 62 61 62 63 63 63 62 61 62 59 53 49 48 48 49 51 51 53 56 61 61 60 60 59 59 59 59
60 60 59 59 58 57 57 56 55 55 55 56 56 55 55 54 53 53 52 50 49 48 47 43 41 41 40 40 40 41 43 48 53 56 58 60 61 62 62 61 62 62 64 60 61 62 62 59 50 47 49 49 49 48 48 49 53 63 62 60 60 59 59
59 59 59 58 58 57 56 55 55 55 55 55 54 54 54 53 53 53 52 50 49 49 47 44 41 41 40 39 39 40 45 49 54 56 58 59 60 61 61 60 60 61 62 62 62 63 62 62 58 54 54 55 57 52 46 47 47 51 57 61 61 60 61
59 58 58 58 57 57 56 55 55 55 55 54 53 53 53 52 52 52 51 51 50 48 48 43 41 40 40 40 39 41 47 51 54 57 58 60 60 61 61 62 61 61 61 62 62 61 62 63 62 59 58 58 60 58 57 56 57 59 61 63 62 63 63
58 59 58 58 57 56 55 54 54 55 54 54 54 54 54 53 52 51 51 50 49 48 48 43 41 40 40 40 40 44 46 49 53 56 57 60 60 61 61 61 60 60 61 61 57 51 53 61 62 61 59 60 60 60 55 50 47 53 59 63 63 63 64
57 57 58 57 56 55 55 55 54 55 54 54 53 53 52 52 52 51 50 50 48 47 47 44 41 40 40 40 41 44 46 49 52 54 55 56 58 61 62 61 60 60 61 61 54 48 48 50 60 60 60 59 60 57 50 51 43 41 43 48 52 51 49
57 57 57 56 55 55 55 56 55 55 54 54 53 53 53 52 52 51 50 49 48 46 46 45 41 41 40 40 42 43 45 45 46 48 52 54 56 59 61 59 57 60 61 61 51 46 46 50 58 59 60 59 58 53 52 53 53 47 41 42 43 43 42
57 56 56 56 55 54 54 54 55 56 55 55 54 54 53 52 51 51 51 49 49 47 46 45 42 40 40 40 42 43 43 43 43 45 50 49 50 51 52 50 47 43 43 43 40 43 43 49 58 59 60 60 57 54 53 54 52 52 53 53 52 53 53
57 57 56 56 55 54 54 54 54 54 55 55 55 54 53 52 51 51 51 50 49 47 46 45 44 40 41 40 40 43 43 41 41 43 45 46 46 47 47 46 45 40 38 38 40 41 43 44 56 59 59 57 57 56 55 55 54 55 56 55 56 57 57
57 57 58 57 55 55 54 53 53 53 53 54 54 53 52 51 51 51 51 51 50 48 47 45 44 41 40 40 40 41 42 41 41 42 42 42 42 42 43 43 43 40 38 38 38 38 41 43 45 54 57 57 58 56 53 56 54 52 56 56 56 56 56
57 57 57 57 56 54 54 54 54 53 53 53 52 51 51 51 50 49 50 50 49 48 48 46 45 42 40 40 40 40 41 41 41 43 41 41 40 40 41 41 41 40 38 39 39 40 39 40 43 53 52 48 47 46 56 56 55 56 57 56 55 54 54
57 58 57 57 56 54 54 53 53 53 52 51 51 50 50 50 49 48 48 49 49 48 48 48 44 43 41 40 40 40 39 40 39 43 42 40 40 40 41 41 42 41 39 39 39 39 39 40 43 42 39 42 43 45 50 55 53 55 54 56 56 55 56
58 58 57 57 56 54 53 53 53 52 52 51 50 49 49 49 48 47 47 47 47 48 48 47 45 42 41 40 40 40 39 39 39 41 42 41 41 40 39 40 40 39 39 39 39 39 39 40 40 39 41 42 43 45 52 52 53 52 48 47 48 50 52
MSLP
1016.10 1016.14 1015.78 1015.54 1015.22 1015.18 1015.34 1015.30 1015.22 1015.18 1015.14 1015.10 1015.10 1015.06 1015.14 1015.30 1015.50 1015.66 1015.82 1016.10 1016.26 1016.34 1016.50 1016.50 1016.42 1016.34 1016.34 1016.18 1016.02 1016.02 1016.18 1016.42 1016.74 1017.06 1017.26 1017.30 1017.70 1017.78 1017.70 1018.02 1018.10 1018.22 1018.38 1018.58 1018.42 1018.94 1019.38 1019.90 1019.62 1018.82 1018.58 1018.54 1018.50 1018.14 1017.90 1017.90 1017.78 1017.94 1018.14 1018.38 1018.66 1018.86 1018.98
1015.74 1015.74 1015.50 1015.26 1015.26 1015.14 1015.34 1015.22 1015.22 1014.98 1014.82 1014.78 1014.78 1014.98 1015.14 1015.10 1015.38 1015.46 1015.58 1015.78 1015.94 1016.06 1016.18 1016.22 1016.18 1016.18 1016.26 1016.30 1016.26 1016.18 1016.14 1016.14 1016.22 1016.34 1016.66 1016.90 1017.10 1017.34 1017.58 1017.90 1018.06 1018.30 1018.38 1018.38 1018.38 1018.62 1019.74 1020.10 1019.38 1019.34 1019.18 1018.50 1018.38 1018.14 1017.90 1017.74 1017.58 1017.70 1017.98 1018.22 1018.38 1018.58 1018.78
1015.94 1015.70 1015.50 1015.50 1015.42 1015.30 1015.42 1015.30 1015.22 1015.14 1014.98 1014.86 1014.90 1015.14 1015.22 1015.06 1015.30 1015.34 1015.42 1015.46 1015.54 1015.62 1015.82 1015.90 1015.90 1015.98 1015.98 1016.06 1016.02 1016.02 1015.86 1015.94 1015.94 1015.98 1016.14 1016.26 1016.46 1016.66 1016.90 1017.26 1017.86 1018.10 1018.54 1018.70 1018.50 1018.58 1018.90 1019.02 1019.38 1019.14 1018.82 1019.02 1019.30 1018.42 1017.82 1017.82 1017.70 1017.70 1017.82 1018.02 1018.22 1018.34 1018.54
1016.34 1016.14 1016.02 1015.82 1015.62 1015.58 1015.62 1015.58 1015.50 1015.30 1015.10 1015.02 1014.78 1014.86 1015.02 1014.98 1015.18 1015.26 1015.18 1015.10 1015.06 1015.22 1015.46 1015.66 1015.66 1015.66 1015.62 1015.70 1015.70 1015.66 1015.66 1015.70 1015.74 1015.78 1015.90 1015.98 1016.10 1016.38 1016.62 1016.86 1017.10 1017.34 1017.78 1018.18 1018.10 1018.18 1018.50 1018.86 1019.10 1019.10 1018.94 1018.38 1018.34 1018.62 1017.94 1017.62 1017.62 1017.62 1017.86 1017.78 1018.02 1018.10 1018.26
1016.58 1016.46 1016.46 1016.34 1016.06 1016.02 1015.78 1015.62 1015.42 1015.30 1015.14 1014.94 1014.90 1014.86 1015.10 1014.94 1015.18 1015.22 1015.06 1015.02 1015.02 1015.06 1015.34 1015.30 1015.38 1015.30 1015.26 1015.26 1015.34 1015.46 1015.50 1015.42 1015.46 1015.58 1015.70 1015.86 1015.94 1016.06 1016.26 1016.42 1016.58 1016.70 1017.06 1017.34 1017.38 1017.58 1017.94 1018.14 1018.50 1018.66 1018.46 1017.98 1018.18 1017.98 1017.58 1017.58 1017.42 1017.46 1017.74 1017.70 1017.74 1017.78 1017.94
1016.86 1016.70 1016.58 1016.42 1016.22 1016.18 1015.98 1015.82 1015.58 1015.42 1015.14 1015.06 1014.86 1014.90 1014.86 1014.82 1014.94 1015.26 1015.30 1015.22 1015.14 1015.06 1015.22 1015.38 1015.34 1015.10 1014.86 1014.82 1014.90 1015.14 1015.26 1015.30 1015.30 1015.38 1015.46 1015.42 1015.54 1015.78 1015.90 1015.94 1016.14 1016.38 1016.58 1016.62 1017.02 1017.34 1017.34 1017.58 1018.46 1019.10 1018.22 1017.86 1018.70 1018.50 1017.50 1017.50 1017.82 1017.38 1017.30 1017.46 1017.42 1017.42 1017.62
1017.02 1016.90 1016.74 1016.58 1016.38 1016.22 1016.06 1015.98 1015.78 1015.46 1015.22 1015.02 1014.78 1014.66 1014.50 1014.46 1014.46 1014.54 1014.86 1014.98 1015.06 1014.94 1015.02 1015.22 1014.94 1014.90 1014.70 1014.70 1014.74 1014.82 1014.98 1015.02 1015.10 1014.98 1014.98 1015.06 1015.22 1015.26 1015.34 1015.70 1015.82 1015.90 1016.02 1016.30 1016.70 1016.98 1017.14 1017.42 1017.90 1018.14 1018.18 1018.26 1018.66 1018.42 1017.38 1017.38 1017.26 1017.86 1017.50 1017.30 1017.18 1017.10 1017.26
1017.14 1017.02 1016.86 1016.62 1016.42 1016.30 1016.10 1015.98 1015.74 1015.46 1015.30 1014.98 1014.74 1014.38 1014.10 1014.18 1014.26 1014.34 1014.50 1014.62 1014.54 1014.54 1014.62 1014.66 1014.70 1014.86 1015.18 1015.14 1014.58 1014.58 1014.86 1014.82 1014.82 1014.86 1015.02 1015.02 1015.10 1015.06 1015.14 1015.18 1015.30 1015.46 1015.62 1015.86 1016.14 1016.42 1016.42 1016.54 1016.86 1017.34 1017.90 1018.66 1018.82 1018.74 1018.26 1017.18 1017.22 1017.38 1017.34 1017.06 1016.78 1016.90 1016.86
1017.14 1017.06 1016.98 1016.78 1016.62 1016.50 1016.22 1015.98 1015.74 1015.46 1015.26 1015.02 1014.66 1014.34 1014.06 1013.98 1014.06 1014.14 1014.06 1014.18 1014.18 1014.14 1014.14 1014.22 1014.38 1014.50 1014.74 1015.18 1014.74 1014.42 1014.46 1014.38 1014.54 1014.62 1014.58 1014.74 1014.82 1014.70 1014.78 1014.82 1015.02 1015.06 1015.10 1015.38 1015.62 1015.82 1015.94 1015.98 1016.26 1016.70 1017.22 1018.10 1018.94 1018.90 1018.42 1018.22 1017.90 1017.42 1016.54 1017.42 1016.90 1016.66 1016.58
1017.18 1017.18 1017.14 1017.02 1016.86 1016.62 1016.42 1016.06 1015.74 1015.38 1015.10 1014.94 1014.74 1014.42 1014.22 1013.98 1013.90 1013.86 1013.90 1013.94 1013.94 1013.90 1013.90 1013.98 1014.02 1014.18 1014.58 1014.66 1014.34 1014.18 1014.18 1014.22 1014.38 1014.26 1014.18 1014.42 1014.34 1014.38 1014.50 1014.58 1014.70 1014.70 1014.78 1014.94 1015.18 1015.34 1015.42 1015.66 1015.90 1016.26 1016.74 1017.34 1018.02 1017.90 1018.06 1018.18 1017.74 1017.66 1016.62 1016.74 1017.14 1016.66 1016.26
1017.26 1017.22 1017.18 1017.22 1017.06 1016.82 1016.50 1016.22 1015.98 1015.82 1015.58 1015.26 1015.02 1014.70 1014.42 1014.18 1013.98 1013.82 1013.74 1013.78 1013.78 1013.78 1013.70 1013.74 1013.82 1013.78 1013.90 1014.18 1014.26 1014.06 1013.78 1014.06 1014.14 1013.86 1013.78 1013.90 1013.98 1014.14 1014.30 1014.46 1014.50 1014.54 1014.50 1014.66 1014.86 1014.90 1015.06 1015.26 1015.62 1015.94 1016.26 1016.46 1017.22 1017.86 1017.22 1017.22 1017.34 1016.62 1016.50 1016.18 1016.22 1016.46 1016.10
1017.46 1017.38 1017.38 1017.38 1017.30 1017.06 1016.82 1016.54 1016.34 1016.06 1015.74 1015.50 1015.26 1015.02 1014.78 1014.46 1014.10 1013.90 1013.74 1013.66 1013.66 1013.74 1013.58 1013.66 1013.66 1013.58 1013.62 1013.74 1013.62 1013.50 1013.30 1013.42 1013.54 1013.50 1013.38 1013.58 1013.70 1014.06 1014.18 1014.22 1014.14 1014.18 1014.10 1014.30 1014.50 1014.62 1014.66 1014.90 1015.06 1015.14 1015.58 1015.98 1016.22 1016.42 1016.86 1016.50 1016.94 1016.18 1015.74 1016.58 1016.02 1015.58 1015.90
1017.62 1017.66 1017.58 1017.46 1017.42 1017.34 1017.18 1016.94 1016.58 1016.26 1016.02 1015.70 1015.46 1015.22 1014.98 1014.66 1014.42 1014.18 1013.86 1013.78 1013.86 1013.98 1014.18 1014.26 1013.90 1013.70 1013.66 1013.58 1013.46 1013.54 1013.38 1013.26 1013.26 1013.22 1013.22 1013.26 1013.50 1013.70 1013.82 1013.86 1013.82 1013.82 1013.78 1013.98 1014.22 1014.30 1014.38 1014.50 1014.62 1014.94 1015.30 1015.58 1015.78 1016.02 1016.66 1016.70 1016.38 1016.34 1015.62 1015.62 1015.46 1015.34 1015.30
1018.06 1017.90 1017.66 1017.58 1017.62 1017.58 1017.46 1017.26 1016.98 1016.58 1016.14 1015.90 1015.62 1015.42 1015.18 1014.94 1014.66 1014.42 1014.10 1013.94 1013.98 1014.10 1014.10 1013.98 1013.78 1013.98 1014.10 1013.82 1013.42 1013.26 1013.06 1013.02 1013.10 1013.18 1013.10 1012.94 1012.90 1013.22 1013.34 1013.42 1013.42 1013.42 1013.50 1013.78 1013.98 1014.06 1014.10 1014.22 1014.34 1014.62 1014.98 1015.30 1015.78 1015.98 1016.38 1016.94 1017.26 1017.02 1015.74 1015.06 1014.94 1015.14 1015.10
1018.26 1018.02 1017.98 1017.86 1017.78 1017.70 1017.58 1017.42 1017.18 1016.90 1016.70 1016.34 1015.94 1015.58 1015.30 1015.02 1014.78 1014.54 1014.34 1014.14 1013.90 1013.82 1013.86 1013.66 1013.50 1013.46 1013.42 1013.34 1013.34 1013.26 1013.06 1012.86 1012.90 1012.82 1012.74 1012.70 1012.58 1012.58 1012.90 1013.14 1013.14 1013.22 1013.26 1013.50 1013.66 1013.90 1013.86 1013.86 1013.94 1014.22 1014.42 1014.66 1015.30 1015.90 1015.82 1016.22 1016.90 1016.94 1016.22 1015.58 1015.02 1014.86 1014.90
1018.46 1018.34 1018.30 1018.10 1018.10 1018.02 1017.82 1017.62 1017.38 1017.22 1016.98 1016.78 1016.46 1016.18 1015.86 1015.58 1015.26 1014.82 1014.42 1014.18 1013.82 1013.70 1013.70 1013.78 1013.58 1013.34 1013.22 1013.10 1013.06 1013.22 1012.98 1012.62 1012.58 1012.58 1012.50 1012.38 1012.26 1012.26 1012.46 1012.74 1012.94 1012.86 1013.06 1013.38 1013.46 1013.62 1013.62 1013.54 1013.46 1013.78 1014.02 1014.22 1014.42 1014.78 1015.42 1015.34 1015.82 1016.98 1017.26 1016.82 1015.58 1015.02 1014.74
1018.74 1018.58 1018.46 1018.42 1018.38 1018.26 1018.10 1017.90 1017.62 1017.46 1017.34 1017.18 1016.98 1016.70 1016.46 1016.26 1015.98 1015.66 1015.14 1014.50 1013.98 1013.74 1013.58 1013.58 1013.42 1013.10 1012.82 1012.66 1012.58 1012.70 1012.54 1012.34 1012.18 1012.18 1012.18 1012.14 1012.06 1012.02 1011.98 1012.30 1012.50 1012.50 1012.66 1013.06 1013.30 1013.38 1013.42 1013.30 1013.30 1013.46 1013.70 1013.94 1014.06 1014.38 1014.66 1014.94 1015.26 1015.74 1016.26 1016.46 1015.46 1014.70 1014.58
1019.02 1018.90 1018.86 1018.70 1018.58 1018.38 1018.22 1018.10 1017.90 1017.78 1017.74 1017.62 1017.50 1017.30 1017.10 1016.78 1016.46 1016.10 1015.70 1015.06 1014.38 1013.94 1013.66 1013.54 1013.54 1013.22 1012.94 1012.74 1012.58 1012.50 1012.58 1012.46 1012.14 1012.06 1012.10 1011.98 1011.86 1011.90 1011.90 1011.94 1012.06 1012.14 1012.26 1012.62 1012.86 1013.14 1013.10 1013.06 1013.02 1013.14 1013.46 1013.66 1013.86 1013.98 1014.30 1014.50 1014.86 1015.26 1015.66 1016.22 1015.74 1014.46 1014.34
1019.50 1019.34 1019.22 1019.06 1018.82 1018.62 1018.46 1018.38 1018.30 1018.10 1018.06 1018.02 1017.90 1017.82 1017.66 1017.34 1017.02 1016.62 1016.10 1015.46 1014.82 1014.46 1014.14 1014.06 1014.26 1014.18 1013.58 1012.78 1012.26 1012.02 1012.02 1012.10 1012.02 1011.98 1012.02 1011.82 1011.66 1011.78 1011.86 1011.82 1011.90 1012.02 1012.14 1012.38 1012.58 1012.70 1012.78 1012.90 1012.98 1012.98 1013.14 1013.34 1013.54 1013.82 1014.18 1014.42 1014.54 1014.70 1015.06 1015.50 1015.62 1014.58 1014.38
1019.90 1019.74 1019.58 1019.38 1019.18 1018.94 1018.78 1018.78 1018.70 1018.54 1018.34 1018.30 1018.26 1018.14 1018.06 1017.86 1017.50 1017.22 1016.78 1016.10 1015.42 1015.74 1015.90 1015.70 1015.50 1015.26 1014.86 1014.18 1013.06 1012.02 1011.86 1011.74 1011.66 1011.70 1011.74 1011.62 1011.62 1011.50 1011.70 1011.78 1011.70 1011.74 1011.90 1011.94 1012.06 1012.18 1012.34 1012.54 1012.82 1012.86 1012.82 1012.94 1013.02 1013.50 1013.90 1014.14 1014.26 1014.34 1014.62 1015.34 1015.58 1014.34 1014.34
1020.14 1020.02 1019.82 1019.62 1019.46 1019.30 1019.18 1019.14 1019.10 1018.90 1018.70 1018.66 1018.58 1018.46 1018.42 1018.26 1018.06 1017.74 1017.42 1017.02 1016.34 1016.26 1016.38 1016.30 1016.14 1015.94 1015.62 1015.06 1014.18 1013.02 1011.90 1011.50 1011.30 1011.30 1011.38 1011.50 1011.38 1011.38 1011.46 1011.66 1011.58 1011.46 1011.42 1011.50 1011.50 1011.58 1011.70 1012.10 1012.46 1012.86 1012.58 1012.46 1012.62 1013.06 1013.46 1013.78 1014.10 1014.34 1014.78 1015.42 1015.34 1014.74 1014.86
1020.26 1020.18 1019.98 1019.82 1019.70 1019.62 1019.54 1019.42 1019.30 1019.14 1019.02 1018.98 1018.94 1018.82 1018.70 1018.62 1018.42 1018.06 1017.86 1017.54 1017.06 1016.74 1017.02 1017.10 1017.06 1017.02 1016.50 1015.58 1014.90 1013.86 1012.82 1011.86 1011.38 1011.22 1011.22 1011.26 1011.14 1011.06 1011.10 1011.42 1011.50 1011.26 1011.14 1011.02 1010.98 1010.98 1011.14 1011.46 1012.02 1012.46 1012.26 1012.06 1012.34 1012.78 1013.14 1013.42 1013.78 1014.22 1014.74 1015.14 1015.34 1014.98 1015.22
1020.62 1020.50 1020.38 1020.30 1020.18 1019.94 1019.78 1019.66 1019.46 1019.30 1019.18 1019.14 1019.22 1019.06 1018.90 1018.82 1018.66 1018.46 1018.30 1017.98 1017.66 1017.22 1017.50 1017.46 1017.46 1017.14 1016.82 1016.46 1015.54 1014.62 1013.58 1012.58 1011.58 1011.02 1010.90 1010.90 1010.86 1010.98 1010.82 1010.82 1010.86 1010.86 1010.74 1010.70 1010.74 1010.82 1010.94 1011.18 1011.42 1011.74 1011.86 1011.82 1011.98 1012.70 1013.22 1013.38 1013.62 1013.86 1014.50 1014.90 1014.74 1014.74 1015.38
1020.78 1020.78 1020.70 1020.70 1020.62 1020.46 1020.30 1020.02 1019.82 1019.62 1019.42 1019.30 1019.22 1019.10 1019.06 1019.02 1018.86 1018.78 1018.70 1018.46 1018.18 1017.82 1017.82 1017.94 1017.74 1017.14 1016.54 1016.06 1015.58 1014.94 1014.26 1013.14 1012.10 1011.30 1010.82 1010.74 1010.74 1010.70 1010.58 1010.42 1010.46 1010.62 1010.82 1010.94 1010.90 1010.94 1010.86 1010.90 1011.06 1011.26 1011.26 1011.38 1011.50 1011.78 1012.70 1013.22 1013.46 1013.50 1013.74 1013.90 1013.98 1014.30 1014.54
1020.86 1020.82 1020.86 1020.90 1020.86 1020.78 1020.66 1020.46 1020.30 1020.06 1019.86 1019.58 1019.34 1019.22 1019.22 1019.14 1019.06 1018.98 1018.86 1018.78 1018.62 1018.34 1018.10 1018.14 1017.70 1017.18 1016.58 1015.98 1015.54 1015.10 1014.34 1013.38 1012.26 1011.42 1010.82 1010.58 1010.38 1010.30 1010.30 1010.14 1010.02 1010.14 1010.46 1010.74 1010.74 1010.78 1010.78 1010.70 1010.98 1011.18 1011.10 1011.10 1011.30 1011.42 1011.46 1012.10 1012.78 1012.98 1012.98 1013.26 1013.58 1013.62 1013.86
1020.98 1020.90 1020.90 1020.94 1020.98 1020.94 1020.86 1020.82 1020.70 1020.54 1020.30 1020.02 1019.78 1019.54 1019.38 1019.26 1019.18 1019.10 1019.10 1019.02 1018.74 1018.46 1018.34 1018.22 1017.78 1017.22 1016.62 1016.02 1015.34 1014.78 1014.06 1013.22 1012.26 1011.50 1010.94 1010.54 1010.26 1010.02 1009.90 1009.82 1009.86 1009.90 1009.94 1010.06 1010.26 1010.38 1010.54 1010.62 1010.74 1010.90 1010.98 1011.06 1011.22 1011.34 1011.62 1011.82 1011.70 1011.62 1011.98 1012.46 1012.78 1013.06 1013.30
1021.26 1021.26 1021.22 1021.14 1021.02 1021.02 1021.06 1021.02 1020.90 1020.74 1020.54 1020.34 1020.18 1020.02 1019.78 1019.62 1019.42 1019.30 1019.22 1019.06 1018.94 1018.82 1018.66 1018.46 1017.98 1017.42 1016.78 1016.06 1015.26 1014.58 1013.74 1012.86 1011.94 1011.26 1010.82 1010.42 1010.18 1010.06 1009.90 1009.82 1009.86 1009.86 1009.74 1009.78 1009.74 1009.86 1010.10 1010.26 1010.42 1010.74 1011.30 1011.78 1011.70 1011.62 1011.66 1011.66 1011.74 1011.78 1011.86 1012.02 1012.38 1012.66 1012.66
1021.38 1021.46 1021.46 1021.34 1021.22 1021.18 1021.22 1021.22 1021.06 1020.86 1020.66 1020.58 1020.42 1020.26 1020.10 1019.94 1019.78 1019.62 1019.54 1019.42 1019.22 1019.02 1018.86 1018.78 1018.30 1017.70 1016.98 1016.18 1015.26 1014.26 1013.38 1012.58 1011.82 1011.26 1010.74 1010.30 1009.94 1009.98 1009.90 1009.74 1009.62 1009.58 1009.58 1009.62 1009.82 1009.82 1009.86 1009.90 1010.02 1010.42 1010.78 1011.14 1011.34 1011.50 1011.70 1011.82 1011.86 1011.90 1011.86 1011.86 1012.02 1012.02 1012.22
1021.78 1021.54 1021.46 1021.46 1021.42 1021.34 1021.30 1021.34 1021.26 1021.06 1020.86 1020.74 1020.66 1020.50 1020.38 1020.26 1020.26 1020.10 1019.86 1019.74 1019.58 1019.34 1019.06 1018.94 1018.62 1018.06 1017.42 1016.54 1015.50 1014.42 1013.78 1012.94 1011.98 1011.30 1010.78 1010.30 1009.86 1009.62 1009.58 1009.62 1009.66 1009.58 1009.34 1009.46 1009.66 1009.82 1009.90 1009.82 1009.86 1010.18 1010.66 1010.82 1010.86 1011.18 1011.54 1011.54 1011.58 1011.30 1011.26 1011.42 1011.70 1011.62 1011.62
1022.18 1021.94 1021.70 1021.66 1021.66 1021.62 1021.42 1021.30 1021.30 1021.14 1021.02 1020.86 1020.82 1020.74 1020.66 1020.58 1020.58 1020.42 1020.26 1020.10 1020.02 1019.82 1019.46 1019.18 1018.90 1018.38 1017.74 1017.02 1015.86 1015.10 1014.30 1013.42 1012.54 1011.78 1011.34 1010.90 1010.30 1009.66 1009.42 1009.42 1009.46 1009.42 1009.30 1009.34 1009.42 1009.58 1009.62 1009.78 1010.02 1010.02 1010.18 1010.26 1010.50 1011.02 1011.66 1011.58 1011.82 1011.70 1011.46 1011.38 1011.62 1011.70 1011.70
1022.50 1022.30 1022.10 1022.06 1022.18 1022.22 1021.94 1021.62 1021.38 1021.22 1021.18 1021.02 1020.94 1020.90 1020.90 1020.86 1020.74 1020.62 1020.54 1020.38 1020.26 1020.18 1019.90 1019.50 1019.22 1018.74 1018.18 1017.58 1016.94 1016.10 1015.30 1014.66 1013.90 1013.10 1012.06 1011.38 1010.78 1009.94 1009.42 1009.54 1009.70 1009.50 1009.30 1009.18 1009.26 1009.38 1009.54 1009.70 1009.70 1009.86 1009.86 1010.02 1010.38 1011.38 1011.86 1011.74 1011.54 1011.62 1011.58 1011.34 1011.46 1011.70 1011.94
1022.82 1022.74 1022.62 1022.54 1022.66 1022.66 1022.42 1022.14 1021.82 1021.54 1021.34 1021.14 1021.06 1021.02 1021.10 1021.06 1020.98 1020.78 1020.66 1020.54 1020.38 1020.34 1020.18 1019.78 1019.50 1019.10 1018.54 1017.98 1017.34 1016.74 1016.10 1015.50 1014.78 1013.82 1012.74 1012.38 1011.94 1011.62 1011.18 1011.06 1010.90 1010.98 1010.66 1010.18 1009.78 1009.86 1010.14 1010.06 1009.70 1009.42 1009.38 1009.62 1010.30 1010.82 1010.98 1011.18 1011.06 1011.14 1011.26 1011.46 1011.82 1011.58 1011.82
1022.82 1022.82 1022.82 1022.82 1022.90 1022.94 1022.86 1022.58 1022.26 1021.94 1021.66 1021.46 1021.26 1021.22 1021.26 1021.26 1021.14 1020.90 1020.74 1020.58 1020.46 1020.42 1020.38 1020.10 1019.82 1019.50 1018.94 1018.34 1017.90 1017.30 1016.66 1016.10 1015.62 1014.82 1014.10 1013.70 1012.94 1012.50 1012.34 1012.06 1011.74 1011.62 1011.34 1010.58 1010.06 1009.74 1009.78 1009.94 1009.58 1009.34 1009.22 1009.54 1009.98 1010.18 1010.42 1010.62 1010.70 1010.66 1010.94 1011.26 1011.54 1011.34 1011.50
1023.22 1023.06 1022.82 1022.74 1022.90 1023.02 1023.02 1022.94 1022.70 1022.42 1022.10 1021.82 1021.66 1021.54 1021.50 1021.42 1021.26 1021.14 1020.98 1020.82 1020.70 1020.58 1020.54 1020.46 1020.10 1019.82 1019.34 1018.82 1018.30 1017.78 1017.26 1016.94 1016.46 1015.82 1015.38 1014.86 1014.34 1013.98 1013.42 1013.06 1012.78 1012.58 1012.10 1011.14 1010.66 1010.18 1009.78 1009.58 1009.42 1009.22 1009.30 1009.38 1009.38 1009.46 1009.94 1010.38 1010.62 1010.70 1010.82 1010.94 1011.18 1011.58 1011.66
1023.22 1023.14 1022.98 1022.94 1022.86 1023.10 1023.26 1023.18 1023.02 1022.86 1022.62 1022.38 1022.26 1022.10 1021.86 1021.74 1021.70 1021.66 1021.42 1021.18 1021.02 1020.94 1020.78 1020.62 1020.50 1020.10 1019.74 1019.26 1018.82 1018.34 1017.98 1017.66 1017.26 1016.46 1016.02 1015.58 1015.18 1014.90 1014.58 1014.10 1013.54 1013.18 1012.82 1012.06 1011.06 1010.78 1010.50 1010.06 1009.46 1009.30 1009.30 1009.30 1009.54 1009.50 1009.58 1009.94 1010.62 1011.02 1011.10 1011.26 1011.46 1011.86 1012.22
1023.26 1023.22 1023.06 1022.98 1022.94 1023.22 1023.42 1023.34 1023.22 1023.14 1023.02 1022.86 1022.78 1022.66 1022.42 1022.22 1022.18 1022.14 1021.94 1021.62 1021.34 1021.18 1021.06 1020.78 1020.70 1020.46 1020.06 1019.66 1019.22 1018.86 1018.58 1018.22 1017.66 1016.98 1016.70 1016.34 1016.10 1015.78 1015.30 1014.82 1014.18 1013.50 1012.98 1012.98 1012.22 1011.30 1010.86 1010.74 1010.70 1010.38 1009.94 1009.58 1009.62 1009.86 1010.06 1010.38 1010.74 1011.06 1011.50 1011.86 1011.90 1011.86 1012.06
1023.22 1023.26 1023.22 1023.18 1023.26 1023.42 1023.58 1023.58 1023.50 1023.34 1023.26 1023.22 1023.18 1023.10 1022.98 1022.70 1022.62 1022.46 1022.26 1022.02 1021.78 1021.58 1021.34 1021.14 1020.94 1020.82 1020.50 1020.02 1019.58 1019.26 1018.94 1018.58 1018.18 1017.82 1017.38 1017.18 1016.86 1016.50 1016.06 1015.58 1015.06 1014.14 1013.62 1013.54 1013.42 1012.26 1011.54 1011.66 1011.86 1011.38 1010.66 1010.18 1010.02 1010.26 1010.54 1010.86 1011.14 1011.34 1012.06 1012.66 1013.10 1012.94 1012.98
Wind_Speed
3 3 3 3 3 3 3 3 3 3 3 4 4 4 4 6 6 5 6 5 6 6 5 7 7 7 5 6 7 8 8 8 9 9 8 6 8 6 7 7 4 4 4 5 2 2 1 3 6 4 3 6 9 7 6 7 7 5 5 7 8 7 7
4 4 4 4 3 2 3 2 3 3 3 4 5 3 4 6 5 5 6 6 6 7 7 7 7 7 9 9 8 8 9 9 9 9 8 8 8 6 7 7 6 5 5 6 4 4 3 5 5 7 6 5 4 4 5 6 4 5 5 7 7 7 7
7 7 5 4 4 3 3 4 2 3 4 4 3 5 4 4 2 3 3 5 6 7 6 8 8 9 10 11 10 10 10 11 8 9 10 8 8 7 7 6 7 6 4 5 5 5 5 6 4 5 6 7 8 5 5 5 4 5 5 6 6 8 7
10 8 8 7 6 6 5 4 3 4 4 5 5 1 7 7 6 5 6 7 7 7 8 7 8 8 8 9 10 11 11 13 9 9 9 8 7 8 8 8 8 9 9 9 8 7 6 5 5 6 6 8 10 7 6 6 5 6 7 6 5 7 8
9 8 9 8 8 8 8 7 3 3 4 4 4 3 2 5 3 4 4 6 6 5 5 6 6 7 8 9 9 9 11 12 10 9 9 10 11 8 9 8 8 8 7 8 6 8 8 6 5 6 7 7 3 4 6 6 5 6 10 8 7 6 8
8 9 9 9 8 7 7 8 8 6 5 5 4 4 3 4 6 6 6 6 5 6 5 6 7 10 9 8 8 10 10 11 10 10 10 12 12 10 10 9 8 8 9 7 6 7 7 6 4 5 7 2 9 9 7 8 6 6 7 8 8 7 8
8 8 8 7 7 7 7 8 8 8 7 6 6 5 4 4 3 5 5 6 6 7 5 7 9 9 9 7 7 9 10 8 9 12 12 12 11 12 10 9 9 9 9 7 7 7 8 7 7 8 6 1 5 7 7 7 8 7 6 6 8 7 8
7 8 8 8 8 8 7 8 7 8 8 8 8 8 6 4 3 1 2 4 6 6 6 6 7 8 7 9 8 7 7 8 9 9 9 12 12 12 11 10 10 9 8 8 8 8 8 8 7 5 5 5 4 6 5 6 7 9 7 8 10 9 8
5 6 6 7 8 9 10 8 8 8 8 9 9 8 7 5 4 3 3 4 5 6 6 7 7 8 6 8 8 8 10 9 9 11 11 12 13 14 13 11 9 9 9 8 8 8 8 7 6 6 8 6 9 9 7 5 5 8 10 6 6 10 7
5 7 7 9 9 9 9 10 9 8 8 8 9 9 9 7 6 5 5 4 4 5 6 5 6 7 7 8 9 9 9 6 7 10 10 11 12 12 10 12 11 8 8 8 7 7 7 6 6 6 6 9 9 8 7 8 7 8 10 11 8 9 9
7 6 7 9 10 10 9 9 10 10 11 11 11 9 10 11 9 9 6 5 4 4 5 5 7 8 5 5 8 9 8 8 11 10 10 10 10 9 9 10 11 8 7 8 8 7 6 7 7 7 7 7 5 8 6 8 7 7 7 9 7 6 9
8 8 8 8 8 10 11 10 11 10 10 11 11 11 12 12 11 10 8 7 5 5 3 4 6 6 5 7 10 10 9 9 9 9 9 10 10 9 10 11 10 9 8 9 8 8 7 7 8 6 7 8 8 10 9 5 5 5 3 7 8 8 8
9 9 8 8 8 10 12 12 12 12 11 10 10 12 11 13 12 12 11 9 7 5 5 7 8 7 6 7 7 6 8 8 9 9 8 7 8 10 11 12 10 9 8 7 7 8 8 9 9 8 8 7 6 2 4 5 6 5 4 7 7 8 12
11 9 9 9 8 9 9 10 11 11 11 10 11 11 12 13 13 12 13 13 11 8 5 6 7 5 8 10 9 8 8 9 9 10 10 11 11 11 11 10 10 10 9 8 7 8 8 9 9 8 8 6 6 5 7 6 7 5 5 6 8 7 8
9 9 10 9 9 10 9 10 10 11 12 13 13 13 12 11 11 13 12 13 10 8 8 9 6 7 9 10 10 8 10 9 8 10 11 11 11 10 9 10 10 9 8 8 8 9 9 9 9 8 7 8 9 9 6 5 5 5 2 2 6 4 10
10 10 11 9 11 12 11 11 11 11 12 12 13 14 14 16 16 15 13 12 11 8 7 8 9 7 8 10 11 11 12 10 10 11 12 11 10 10 11 12 11 10 7 9 9 9 8 8 7 8 8 6 6 7 7 6 6 3 6 7 6 7 6
10 11 11 10 11 11 11 11 11 11 13 12 14 13 15 15 14 15 16 15 13 11 8 7 9 10 12 12 10 9 9 8 10 11 10 10 10 10 10 9 11 9 9 9 9 9 8 6 5 7 8 6 6 6 6 6 7 8 6 8 9 8 5
11 12 12 11 11 11 10 11 11 13 13 14 14 14 14 13 13 14 13 15 14 14 9 6 8 10 8 6 8 7 8 11 9 8 8 8 8 8 10 10 9 9 9 10 10 9 7 8 7 7 8 7 7 7 6 7 6 4 4 8 8 6 5
12 12 12 12 12 12 12 12 13 12 13 14 14 13 14 14 13 15 15 15 14 15 16 15 17 17 16 13 8 8 8 9 9 7 7 8 8 6 7 8 9 7 8 10 9 7 8 9 8 8 9 8 7 6 7 6 7 7 5 7 8 7 6
11 11 11 11 11 12 12 13 14 14 13 14 14 14 14 15 14 15 16 15 14 15 14 13 12 13 14 15 15 10 7 8 10 6 7 8 8 9 7 6 6 8 8 9 10 9 9 9 10 9 10 9 9 8 7 7 7 7 9 6 9 5 5
9 10 10 10 11 12 12 13 13 12 13 14 14 14 15 15 14 13 14 14 14 11 13 14 15 16 14 14 13 14 11 8 9 6 7 9 8 8 8 9 10 10 9 9 10 9 9 9 7 8 8 8 7 9 8 8 8 7 6 7 8 1 3
9 10 12 12 12 12 12 11 12 12 12 13 11 14 14 14 14 15 16 15 15 10 13 12 12 14 14 15 15 14 13 12 10 9 7 8 9 8 7 7 10 9 10 11 14 12 11 10 8 9 9 8 8 8 7 6 6 4 4 7 6 3 7
10 11 12 13 13 13 13 12 12 12 12 12 13 13 14 15 14 15 15 16 16 10 11 11 21 27 20 13 13 12 12 11 11 9 8 8 7 7 7 9 11 14 13 14 15 16 15 15 13 9 8 8 8 9 10 8 7 7 9 10 9 5 3
10 11 11 12 12 14 15 13 12 12 12 11 11 11 11 15 16 14 15 14 15 12 8 16 28 24 25 24 16 12 11 11 10 10 8 7 8 8 7 8 7 12 10 4 9 14 14 15 16 14 13 12 8 9 9 12 13 12 11 10 8 7 8
10 10 11 13 13 12 12 13 14 13 13 12 11 10 11 12 12 14 13 16 13 13 10 23 26 27 25 25 21 14 10 9 10 10 9 8 8 6 8 8 7 5 6 10 9 8 9 12 13 14 15 15 15 15 15 13 12 10 10 10 8 10 9
11 11 11 11 9 11 12 13 13 13 13 13 12 12 12 11 11 12 14 16 12 12 10 23 26 27 26 26 25 20 9 9 8 9 9 8 8 8 5 3 4 5 6 12 11 9 9 9 11 13 14 12 10 12 12 11 11 13 11 11 11 11 11
11 12 12 11 11 12 12 12 11 10 10 11 12 12 13 11 11 12 12 12 13 13 12 22 27 27 27 28 27 21 10 10 7 8 9 8 7 7 8 8 7 7 5 5 6 7 7 9 9 9 7 5 6 8 8 11 10 7 5 9 9 9 8
11 11 10 10 10 11 11 11 11 10 9 10 11 11 12 13 12 12 12 12 13 12 11 24 26 27 28 29 29 20 10 9 9 9 9 9 8 5 7 8 7 5 3 4 4 7 8 9 9 10 10 9 9 8 7 6 6 5 5 9 10 10 9
12 12 11 12 12 11 10 10 11 10 9 8 9 9 9 10 12 13 13 12 13 14 14 22 26 26 27 29 29 14 11 11 11 10 10 10 9 7 5 4 5 6 5 2 4 8 10 8 7 5 6 7 9 7 4 3 2 6 5 8 7 9 11
11 11 11 11 13 13 11 10 9 8 9 9 9 10 10 10 11 11 13 13 15 13 14 20 25 26 27 29 25 16 15 13 14 13 12 12 12 9 5 3 5 7 6 5 9 14 15 13 5 7 8 9 7 6 5 2 1 3 3 8 11 8 5
13 13 13 14 13 13 12 10 9 8 9 9 9 9 10 10 10 10 12 12 13 13 14 18 24 25 26 27 24 17 14 12 13 12 12 13 13 10 6 8 11 6 7 6 7 14 13 9 8 9 9 8 5 7 5 5 4 5 8 9 10 9 8
11 12 13 12 12 13 13 12 11 10 9 8 8 8 9 9 10 9 10 10 14 13 12 15 23 25 26 26 23 15 14 11 13 13 12 13 14 14 14 13 18 16 12 10 12 8 3 7 6 6 6 6 7 10 9 8 8 9 8 9 7 9 9
9 9 10 9 10 10 10 11 11 10 9 9 9 8 9 9 9 9 9 10 10 11 12 14 19 24 25 25 25 16 11 14 15 14 13 11 10 12 11 11 13 19 19 15 12 9 4 5 5 5 5 5 9 8 8 8 6 6 5 6 6 7 8
12 11 10 8 7 8 10 11 11 12 11 10 11 10 10 9 9 10 10 11 11 11 11 13 16 22 23 24 25 21 12 14 14 12 12 13 11 11 11 11 10 20 19 16 15 13 5 4 4 1 1 4 6 7 10 6 7 7 8 9 8 6 7
7 6 7 9 8 9 10 11 10 11 10 10 12 12 11 10 11 11 11 11 11 12 12 15 14 18 22 23 23 25 14 13 15 10 11 11 11 13 13 12 12 18 20 16 16 17 16 11 6 2 1 2 6 14 11 8 7 6 7 6 8 9 8
7 7 8 8 8 9 9 10 10 10 10 11 12 12 12 11 11 11 10 10 10 10 11 11 17 17 20 22 22 21 22 17 21 14 14 13 13 12 10 12 13 24 24 22 18 20 19 17 12 6 5 9 10 11 8 6 5 6 6 4 6 9 8
7 6 8 9 10 8 9 10 9 9 9 10 9 10 10 10 10 10 11 10 11 11 10 10 12 18 18 21 20 22 20 21 21 14 13 13 12 12 13 13 15 23 25 24 22 19 23 20 13 14 13 14 17 13 8 6 5 8 8 8 8 7 9
Wind_Direction
316 313 286 275 261 217 245 266 252 232 206 219 224 229 219 208 202 204 202 201 211 222 228 229 231 228 232 230 222 209 197 196 193 202 201 192 190 198 196 203 196 170 212 264 248 201 277 210 222 242 248 218 230 232 205 218 201 163 161 144 159 169 175
310 302 310 300 301 324 292 249 259 250 222 210 215 189 248 237 219 218 200 198 208 222 223 232 231 226 221 228 226 221 211 205 201 202 199 203 197 199 175 195 194 196 215 228 235 119 195 262 227 205 218 215 246 244 204 235 200 160 158 158 166 171 175
346 337 322 312 303 308 303 301 289 307 295 265 210 166 237 292 291 274 257 228 224 224 221 229 225 225 227 230 228 225 221 218 207 204 205 204 200 199 192 171 180 186 185 224 232 195 209 233 233 210 208 196 214 230 202 221 204 162 184 166 173 174 174
349 340 337 336 339 332 316 308 337 287 293 300 300 184 186 226 233 235 233 239 238 220 227 233 233 229 229 229 234 226 226 226 218 207 208 210 201 199 196 189 192 187 190 198 203 190 190 198 216 240 238 227 202 199 205 205 198 178 199 175 189 183 164
345 343 339 334 339 334 332 328 318 287 288 282 285 295 207 198 223 250 283 283 268 251 231 233 237 237 236 231 227 232 235 233 227 217 212 211 209 205 202 198 201 193 195 197 186 174 190 215 219 237 218 215 261 241 185 201 198 198 195 187 196 190 167
348 346 340 338 340 332 330 323 322 316 305 284 279 269 250 246 180 229 250 252 279 276 284 265 259 252 244 233 226 230 231 229 228 222 222 215 207 205 207 203 202 197 202 191 157 179 193 176 166 249 264 227 200 220 204 180 196 205 193 199 188 200 166
352 346 335 331 330 327 327 323 318 311 306 298 294 274 253 244 232 211 210 248 247 253 263 263 253 263 250 241 234 231 234 231 231 225 225 222 212 212 208 203 202 200 202 182 176 181 191 179 189 205 232 341 271 221 202 184 186 195 197 199 206 202 166
347 339 335 331 330 324 324 317 311 306 306 308 303 303 293 277 265 183 203 242 238 241 249 255 264 263 285 276 240 235 246 240 231 227 242 234 222 213 210 208 204 201 194 183 177 191 193 197 196 175 171 203 256 275 281 196 186 201 201 187 193 206 179
346 335 330 333 333 331 324 317 308 306 306 304 300 297 299 300 294 249 221 214 222 233 234 232 233 242 224 253 257 248 235 225 229 232 226 225 226 218 215 214 207 202 194 186 186 196 202 198 188 155 173 189 209 214 207 220 214 213 200 185 194 212 184
1 352 344 338 336 330 323 318 314 312 312 315 316 314 308 310 303 284 263 242 229 235 242 230 236 240 248 242 244 243 237 243 249 237 229 226 225 219 215 214 211 203 193 185 184 185 189 184 189 185 169 193 220 232 190 196 210 200 204 185 197 200 190
354 2 357 352 341 331 327 329 335 335 337 337 335 327 323 313 301 295 287 263 255 248 246 241 239 243 228 272 265 255 242 225 237 234 228 224 222 219 220 218 215 208 193 187 187 191 187 188 188 195 198 205 162 246 225 199 209 200 201 187 200 179 174
358 359 5 353 345 337 337 339 334 331 330 336 330 330 329 324 320 313 301 289 267 271 255 271 276 266 233 228 242 242 239 230 231 233 221 220 227 227 221 215 207 206 194 191 194 193 194 186 202 197 199 203 191 221 229 246 195 212 143 186 198 181 188
6 3 354 348 350 349 343 339 335 333 334 329 326 326 325 324 328 329 321 312 308 286 315 315 300 291 289 268 249 251 252 235 233 240 236 219 227 222 220 217 211 211 198 190 199 197 194 194 194 192 211 202 203 202 303 270 239 227 213 198 191 193 185
6 352 348 359 357 354 343 339 336 333 332 333 330 329 327 325 326 325 327 324 321 315 298 285 276 293 287 279 268 256 243 233 229 241 235 228 214 215 219 213 214 214 208 199 199 204 201 199 199 192 191 168 157 193 203 237 251 219 213 210 175 197 176
350 354 4 352 359 354 350 348 344 343 344 337 335 331 330 327 324 324 326 323 316 314 314 297 298 277 272 276 281 268 255 239 247 243 233 236 218 209 206 221 223 216 205 206 211 209 212 210 199 194 193 185 170 190 163 178 208 240 262 244 173 209 176
358 1 2 356 8 358 354 351 351 349 348 347 343 343 345 344 339 331 324 319 317 311 304 314 305 290 272 263 259 269 267 246 243 239 232 230 226 214 206 209 214 214 202 206 218 219 223 220 198 195 200 182 189 166 157 158 146 153 263 273 257 194 185
356 2 5 9 4 3 358 352 355 354 356 352 351 349 350 348 344 342 335 327 323 319 319 310 299 290 281 274 272 274 281 267 247 241 234 233 229 222 219 207 215 208 199 207 214 220 217 227 200 193 192 182 178 178 152 162 182 174 206 228 227 194 177
3 5 6 2 2 2 3 359 359 1 1 358 358 355 353 348 344 341 337 332 334 333 319 311 306 300 294 295 293 289 284 277 254 240 236 238 234 229 222 218 212 209 201 201 206 211 215 214 213 194 194 189 187 184 163 177 191 186 154 222 226 214 152
6 7 3 2 359 1 5 8 3 4 3 2 2 359 357 351 349 343 342 341 343 357 358 1 359 351 339 316 275 260 266 275 264 249 254 240 235 241 243 221 222 224 212 204 211 216 215 204 214 204 198 191 184 172 172 167 185 189 189 233 254 191 169
10 8 1 1 1 1 10 10 6 5 6 5 5 2 359 356 353 352 347 344 354 25 17 12 2 357 349 343 325 303 284 279 276 238 238 250 229 226 233 242 229 215 203 199 205 207 206 213 214 213 202 191 182 171 170 179 186 186 200 223 245 216 171
10 7 3 5 6 6 9 11 8 7 6 8 7 5 4 358 357 355 354 351 349 27 14 14 6 354 349 339 335 328 309 284 273 254 252 250 230 213 213 222 237 230 209 200 198 198 195 208 205 215 213 190 173 161 178 179 188 190 158 217 250 308 25
11 9 8 7 11 11 9 11 11 7 10 10 8 7 7 3 1 358 358 360 350 19 21 10 4 354 343 341 335 333 328 313 296 292 281 274 263 241 202 215 237 224 211 197 198 198 197 198 201 215 215 186 180 167 177 165 183 169 156 211 250 125 187
13 12 14 11 7 6 6 9 7 9 13 11 10 8 7 8 8 2 2 1 356 10 20 6 355 350 349 343 333 331 327 321 309 281 259 253 251 276 258 220 227 241 223 202 196 202 200 197 206 214 211 200 194 175 172 171 188 188 190 204 212 167 197
20 19 17 15 12 11 7 5 5 6 8 12 12 12 9 10 9 8 8 1 1 3 18 2 354 351 347 346 344 333 326 318 309 304 297 281 263 235 255 247 215 223 225 237 222 209 208 212 214 217 219 209 192 177 167 176 180 190 190 196 192 183 187
19 23 21 19 15 13 10 9 6 3 1 4 7 10 17 15 10 9 6 5 4 357 7 1 355 352 348 345 342 332 314 309 309 307 302 295 280 272 252 245 243 234 193 208 228 217 215 220 217 211 216 218 214 204 204 186 180 184 183 186 184 195 190
17 19 21 24 17 17 14 13 10 6 0 360 360 5 6 10 15 13 10 3 359 356 4 360 356 352 350 345 341 335 308 302 296 299 297 292 289 267 242 250 261 237 224 204 219 212 209 221 221 206 191 202 199 190 198 218 206 182 177 180 189 196 194
20 21 16 14 13 19 14 12 11 5 2 4 4 1 360 5 11 18 15 7 1 4 4 1 356 353 350 346 342 335 305 298 292 299 301 290 291 293 279 266 254 247 230 223 221 218 197 206 198 197 192 165 200 207 206 198 217 197 153 172 181 199 206
23 30 22 15 17 20 18 14 10 5 10 7 6 3 3 3 4 8 13 12 6 4 7 5 358 354 352 348 343 334 317 311 315 312 306 295 285 277 266 260 250 244 237 212 231 240 216 211 192 191 198 189 197 184 177 164 161 184 180 179 190 200 191
15 16 20 21 18 16 21 21 10 1 6 12 9 6 5 11 7 7 6 8 5 3 2 5 359 356 354 353 346 342 328 325 321 322 319 315 291 282 283 260 248 249 250 191 182 233 245 239 212 169 161 188 198 169 141 271 264 210 192 184 187 190 201
18 12 16 23 20 15 10 16 22 5 5 10 12 12 8 13 12 6 8 10 8 3 1 2 360 357 357 358 355 352 344 338 340 337 338 330 319 290 279 249 237 257 248 236 210 209 217 225 173 211 202 204 196 145 133 202 58 84 176 187 185 187 156
21 14 16 24 26 16 4 6 12 9 10 7 11 20 11 12 12 11 9 10 11 9 2 1 1 359 360 1 0 357 354 347 339 339 331 341 331 311 274 346 352 299 271 240 219 209 217 217 206 200 214 191 147 109 147 173 149 72 92 109 126 123 104
26 23 21 26 28 18 8 4 4 5 5 9 12 23 19 12 13 12 11 7 11 12 4 1 3 359 1 2 3 360 360 352 350 339 345 354 356 3 3 15 8 4 348 344 354 350 243 219 236 221 212 175 147 158 175 171 157 142 134 121 123 120 108
28 34 30 30 34 28 12 7 1 2 7 8 6 22 25 16 13 11 12 9 9 13 6 2 2 1 2 2 4 4 356 2 0 354 359 354 352 358 358 0 5 -0 351 359 11 23 62 211 233 243 205 144 146 165 168 164 173 146 117 94 119 126 126
24 15 17 30 49 39 25 12 5 3 4 8 7 14 19 12 10 11 12 10 12 12 12 6 360 1 3 3 5 8 1 4 355 2 4 7 3 1 359 357 357 358 351 16 26 27 62 87 36 69 295 188 170 150 145 157 165 146 126 139 131 103 94
40 16 23 24 23 47 33 20 14 11 7 9 12 10 9 14 14 12 9 9 11 12 10 14 4 0 3 3 5 8 10 6 1 358 6 9 10 12 5 2 357 1 2 14 39 40 30 21 18 346 0 310 131 133 150 145 138 146 145 132 120 114 114
43 18 19 27 25 52 35 22 18 18 14 12 15 12 9 10 14 11 10 7 6 7 8 6 9 5 2 3 5 9 10 11 6 10 15 16 11 7 354 360 8 16 15 5 25 44 41 35 24 13 56 99 129 135 115 106 102 100 82 91 119 131 133
66 37 20 28 29 37 41 22 18 17 21 20 20 15 13 10 8 10 7 6 7 5 3 4 1 3 359 360 3 8 10 12 13 11 14 15 10 10 11 11 11 21 23 13 1 31 46 39 30 30 50 66 76 67 73 82 87 84 75 59 49 49 64